When you browse on this site, cookies collect data to enhance your experience and personalize the content and advertising you see.
Visit our Privacy Policy to learn more. By continuing to use the site, you agree to this use of cookies and data.
  • In Slovakia
  • List of Countries
  • For 7 days
  • Water Temperature
  • Satellite Maps
  • Weather Map
  • Weather Widgets
  • user-avatar
    Login

    Hourly Weather Mastilovichi

    Today, 26 June, Wednesday

    Time Temperature Precipitation Wind Pressure Humidity
    00:00 +17°C° 0 mm 2 mps 748 mmHg 79%
    01:00 +17°C° 0 mm 2 mps 748 mmHg 82%
    02:00 +16°C° 0 mm 2 mps 748 mmHg 84%
    03:00 +17°C° 0 mm 2 mps 747 mmHg 85%
    04:00 +17°C° 0 mm 3 mps 747 mmHg 86%
    05:00 +17°C° 0 mm 3 mps 747 mmHg 87%
    06:00 +18°C° 0 mm 3 mps 746 mmHg 83%
    07:00 +20°C° 0 mm 3 mps 746 mmHg 80%
    08:00 +21°C° 0 mm 3 mps 746 mmHg 77%
    09:00 +22°C° 0 mm 3 mps 746 mmHg 72%
    10:00 +25°C° 0 mm 4 mps 745 mmHg 68%
    11:00 +26°C° 0 mm 4 mps 745 mmHg 64%
    12:00 +27°C° 0 mm 5 mps 745 mmHg 64%
    13:00 +27°C° 0 mm 5 mps 744 mmHg 63%
    14:00 +28°C° 0 mm 5 mps 744 mmHg 63%
    15:00 +27°C° 0.2 mm 5 mps 743 mmHg 67%
    16:00 +27°C° 0.2 mm 4 mps 742 mmHg 72%
    17:00 +26°C° 0.2 mm 4 mps 741 mmHg 76%
    18:00 +25°C° 0.4 mm 4 mps 741 mmHg 80%
    19:00 +25°C° 0.4 mm 4 mps 740 mmHg 83%
    20:00 +23°C° 0.4 mm 4 mps 740 mmHg 86%
    21:00 +22°C° 0.5 mm 4 mps 739 mmHg 88%
    22:00 +22°C° 0.5 mm 5 mps 738 mmHg 89%
    23:00 +22°C° 0.5 mm 5 mps 738 mmHg 90%

    Tomorrow, 27 June, Thursday

    Time Temperature Precipitation Wind Pressure Humidity
    00:00 +22°C° 0 mm 5 mps 737 mmHg 91%
    01:00 +21°C° 0 mm 5 mps 736 mmHg 92%
    02:00 +21°C° 0 mm 5 mps 735 mmHg 93%
    03:00 +21°C° 0.4 mm 5 mps 734 mmHg 93%
    04:00 +21°C° 0.4 mm 5 mps 734 mmHg 94%
    05:00 +21°C° 0.4 mm 6 mps 733 mmHg 94%
    06:00 +21°C° 0 mm 6 mps 732 mmHg 92%
    07:00 +21°C° 0 mm 7 mps 732 mmHg 90%
    08:00 +22°C° 0 mm 7 mps 731 mmHg 88%
    09:00 +21°C° 0.2 mm 7 mps 731 mmHg 88%
    10:00 +21°C° 0.2 mm 7 mps 731 mmHg 87%
    11:00 +20°C° 0.2 mm 6 mps 731 mmHg 87%
    12:00 +20°C° 0.6 mm 7 mps 731 mmHg 86%
    13:00 +20°C° 0.6 mm 8 mps 731 mmHg 86%
    14:00 +18°C° 0.6 mm 8 mps 731 mmHg 85%
    15:00 +18°C° 0.1 mm 8 mps 732 mmHg 83%
    16:00 +17°C° 0.1 mm 8 mps 732 mmHg 81%
    17:00 +16°C° 0.1 mm 7 mps 732 mmHg 79%
    18:00 +16°C° 0 mm 7 mps 732 mmHg 78%
    19:00 +15°C° 0 mm 7 mps 732 mmHg 76%
    20:00 +15°C° 0 mm 6 mps 732 mmHg 75%
    21:00 +14°C° 0 mm 7 mps 732 mmHg 73%
    22:00 +12°C° 0 mm 7 mps 732 mmHg 72%
    23:00 +11°C° 0 mm 7 mps 732 mmHg 70%

    Day after tomorrow, 28 June, Friday

    Time Temperature Precipitation Wind Pressure Humidity
    00:00 +11°C° 0 mm 7 mps 732 mmHg 73%
    01:00 +10°C° 0 mm 7 mps 732 mmHg 76%
    02:00 +10°C° 0 mm 7 mps 732 mmHg 80%
    03:00 +10°C° 0 mm 7 mps 732 mmHg 80%
    04:00 +10°C° 0 mm 7 mps 732 mmHg 81%
    05:00 +10°C° 0 mm 7 mps 732 mmHg 82%
    06:00 +11°C° 0 mm 8 mps 732 mmHg 78%
    07:00 +12°C° 0 mm 9 mps 732 mmHg 74%
    08:00 +13°C° 0 mm 9 mps 733 mmHg 70%
    09:00 +14°C° 0 mm 10 mps 733 mmHg 66%
    10:00 +16°C° 0 mm 10 mps 733 mmHg 63%
    11:00 +17°C° 0 mm 10 mps 733 mmHg 59%
    12:00 +17°C° 0.1 mm 10 mps 733 mmHg 59%
    13:00 +17°C° 0.1 mm 9 mps 734 mmHg 59%
    14:00 +17°C° 0.1 mm 9 mps 734 mmHg 59%
    15:00 +17°C° 0.1 mm 8 mps 734 mmHg 59%
    16:00 +17°C° 0.1 mm 8 mps 734 mmHg 59%
    17:00 +17°C° 0.1 mm 8 mps 734 mmHg 59%
    18:00 +16°C° 0 mm 7 mps 734 mmHg 62%
    19:00 +15°C° 0 mm 6 mps 734 mmHg 65%
    20:00 +14°C° 0 mm 6 mps 735 mmHg 68%
    21:00 +13°C° 0 mm 6 mps 735 mmHg 66%
    22:00 +12°C° 0 mm 5 mps 735 mmHg 64%
    23:00 +10°C° 0 mm 5 mps 736 mmHg 62%

    29 June, Saturday

    Time Temperature Precipitation Wind Pressure Humidity
    00:00 +9°C° 0 mm 5 mps 736 mmHg 62%
    01:00 +9°C° 0 mm 5 mps 736 mmHg 62%
    02:00 +8°C° 0 mm 5 mps 736 mmHg 63%
    03:00 +8°C° 0 mm 5 mps 736 mmHg 68%
    04:00 +8°C° 0 mm 5 mps 736 mmHg 73%
    05:00 +7°C° 0 mm 6 mps 737 mmHg 78%
    06:00 +9°C° 0 mm 6 mps 737 mmHg 74%
    07:00 +10°C° 0 mm 6 mps 737 mmHg 70%
    08:00 +12°C° 0 mm 7 mps 737 mmHg 66%
    09:00 +14°C° 0 mm 7 mps 737 mmHg 62%
    10:00 +15°C° 0 mm 7 mps 737 mmHg 58%
    11:00 +16°C° 0 mm 8 mps 737 mmHg 53%
    12:00 +17°C° 0 mm 7 mps 737 mmHg 52%
    13:00 +17°C° 0 mm 7 mps 737 mmHg 51%
    14:00 +18°C° 0 mm 7 mps 737 mmHg 49%
    15:00 +18°C° 0 mm 7 mps 737 mmHg 51%
    16:00 +19°C° 0 mm 6 mps 737 mmHg 52%
    17:00 +19°C° 0 mm 6 mps 737 mmHg 53%
    18:00 +16°C° 0 mm 5 mps 737 mmHg 60%
    19:00 +15°C° 0 mm 4 mps 737 mmHg 67%
    20:00 +14°C° 0 mm 3 mps 737 mmHg 74%
    21:00 +14°C° 0 mm 3 mps 737 mmHg 77%
    22:00 +14°C° 0 mm 4 mps 738 mmHg 79%
    23:00 +13°C° 0 mm 4 mps 738 mmHg 82%

    30 June, Sunday

    Time Temperature Precipitation Wind Pressure Humidity
    00:00 +13°C° 0 mm 4 mps 738 mmHg 85%
    01:00 +12°C° 0 mm 4 mps 738 mmHg 89%
    02:00 +11°C° 0 mm 3 mps 738 mmHg 92%
    03:00 +11°C° 0 mm 3 mps 738 mmHg 92%
    04:00 +11°C° 0 mm 3 mps 738 mmHg 92%
    05:00 +12°C° 0 mm 3 mps 738 mmHg 92%
    06:00 +13°C° 0 mm 3 mps 739 mmHg 86%
    07:00 +16°C° 0 mm 3 mps 739 mmHg 79%
    08:00 +18°C° 0 mm 3 mps 739 mmHg 73%
    09:00 +19°C° 0 mm 3 mps 739 mmHg 70%
    10:00 +20°C° 0 mm 3 mps 739 mmHg 66%
    11:00 +22°C° 0 mm 4 mps 739 mmHg 63%
    12:00 +22°C° 0 mm 4 mps 739 mmHg 62%
    13:00 +23°C° 0 mm 4 mps 739 mmHg 61%
    14:00 +25°C° 0 mm 4 mps 739 mmHg 60%
    15:00 +25°C° 0 mm 4 mps 738 mmHg 62%
    16:00 +25°C° 0 mm 4 mps 738 mmHg 64%
    17:00 +25°C° 0 mm 4 mps 738 mmHg 66%
    18:00 +24°C° 0 mm 3 mps 738 mmHg 72%
    19:00 +22°C° 0 mm 3 mps 738 mmHg 77%
    20:00 +21°C° 0 mm 3 mps 737 mmHg 83%
    21:00 +20°C° 0 mm 3 mps 737 mmHg 86%
    22:00 +19°C° 0 mm 3 mps 737 mmHg 88%
    23:00 +18°C° 0 mm 3 mps 737 mmHg 91%

    1 July, Monday

    Time Temperature Precipitation Wind Pressure Humidity
    00:00 +18°C° 0 mm 3 mps 737 mmHg 90%
    01:00 +17°C° 0 mm 3 mps 737 mmHg 89%
    02:00 +17°C° 0 mm 4 mps 736 mmHg 89%
    03:00 +17°C° 0 mm 4 mps 736 mmHg 89%
    04:00 +17°C° 0 mm 4 mps 736 mmHg 89%
    05:00 +17°C° 0 mm 4 mps 735 mmHg 89%
    06:00 +18°C° 0 mm 4 mps 735 mmHg 85%
    07:00 +20°C° 0 mm 4 mps 735 mmHg 82%
    08:00 +21°C° 0 mm 4 mps 735 mmHg 78%
    09:00 +23°C° 0 mm 5 mps 735 mmHg 75%
    10:00 +25°C° 0 mm 5 mps 735 mmHg 73%
    11:00 +26°C° 0 mm 5 mps 735 mmHg 70%
    12:00 +26°C° 0.1 mm 6 mps 735 mmHg 66%
    13:00 +27°C° 0.1 mm 7 mps 735 mmHg 61%
    14:00 +27°C° 0.1 mm 7 mps 735 mmHg 56%
    15:00 +26°C° 0 mm 7 mps 735 mmHg 57%
    16:00 +24°C° 0 mm 6 mps 735 mmHg 58%
    17:00 +25°C° 0 mm 5 mps 735 mmHg 59%
    18:00 +22°C° 0 mm 5 mps 735 mmHg 66%
    19:00 +21°C° 0 mm 4 mps 735 mmHg 72%
    20:00 +19°C° 0 mm 3 mps 735 mmHg 78%
    21:00 +18°C° 0 mm 3 mps 735 mmHg 81%
    22:00 +17°C° 0 mm 2 mps 735 mmHg 85%
    23:00 +15°C° 0 mm 2 mps 735 mmHg 88%
    Show more